Date,TemperatureHighF,TemperatureAvgF,TemperatureLowF,DewpointHighF,DewpointAvgF,DewpointLowF,HumidityHigh,HumidityAvg,HumidityLow,PressureMaxIn,PressureMinIn,WindSpeedMaxMPH,WindSpeedAvgMPH,GustSpeedMaxMPH,PrecipitationSumIn
2013-4-1,76,62,55,54,48,40,90,64,34,29.68,29.52,7,0,9,0.41
2013-4-2,64,50,40,38,32,29,75,52,29,29.87,29.69,5,0,9,0.00
2013-4-3,65,50,42,36,28,23,61,43,26,30.00,29.84,4,0,5,0.00
2013-4-4,47,43,40,39,32,25,89,67,46,30.06,29.63,4,0,11,0.53
2013-4-5,64,53,40,50,45,37,89,75,56,29.73,29.59,1,0,2,0.57
2013-4-6,68,57,42,42,36,30,86,48,31,29.98,29.73,8,0,9,0.00
2013-4-7,73,56,39,47,40,34,82,57,37,30.00,29.82,6,0,8,0.00
2013-4-8,80,66,55,59,53,50,87,66,43,29.89,29.76,6,0,8,0.00
2013-4-9,86,72,59,61,58,55,88,63,40,29.90,29.77,5,0,7,0.00
2013-4-10,87,74,63,64,60,57,84,64,42,29.82,29.65,4,0,10,0.00
2013-4-11,80,72,62,66,61,58,86,70,51,29.71,29.51,10,1,13,0.00
2013-4-12,80,72,65,68,63,53,89,74,53,29.53,29.32,7,1,11,0.24
2013-4-13,75,67,54,52,45,42,69,47,33,29.71,29.48,4,0,4,0.00
2013-4-14,81,66,48,54,46,43,85,53,28,29.82,29.72,5,0,6,0.00
2013-4-15,71,66,60,58,56,52,84,71,61,29.92,29.73,4,0,6,0.02
2013-4-16,77,66,58,62,58,54,89,76,58,30.01,29.90,3,0,5,0.00
2013-4-17,81,71,60,66,62,56,89,75,58,29.94,29.82,6,0,6,0.00
2013-4-18,78,70,62,62,60,57,86,71,55,29.91,29.75,6,0,7,0.00
2013-4-19,82,71,65,68,64,61,90,80,60,29.76,29.43,7,1,12,0.51
2013-4-20,65,56,49,62,43,37,90,64,40,29.98,29.54,3,0,5,0.60
2013-4-21,61,51,44,43,40,38,87,68,49,30.19,29.98,4,0,11,0.00
2013-4-22,61,51,39,46,39,32,82,66,49,30.18,29.97,8,1,10,0.00
2013-4-23,64,55,48,52,47,44,87,76,59,29.98,29.84,5,0,7,0.00
2013-4-24,76,64,52,58,54,48,88,71,52,29.87,29.68,5,0,6,0.00
2013-4-25,69,62,54,57,48,40,80,61,43,29.98,29.72,4,0,6,0.00
2013-4-26,72,60,50,50,45,39,87,60,33,30.13,29.98,9,0,9,0.00
2013-4-27,73,63,54,53,47,43,76,57,38,30.09,29.96,0,0,4,0.00
2013-4-28,61,58,56,55,50,43,90,75,58,29.98,29.82,0,0,0,0.91
2013-4-29,70,63,55,63,58,52,92,86,74,29.82,29.67,0,0,0,1.91
2013-4-30,65,62,58,59,57,54,90,86,78,29.89,29.71,6,0,7,0.00